LiveATC.Net - Listen to live air traffic control over the Internet!
Airport/ARTCC Code
Frequency Search
(e.g., 124.400, 128.75)
Site-wide search
 


Browse Feeds
Top 50 Feeds
HF Oceanic Feeds
Coverage Map
Bad Weather Areas

LiveATC FAQ

Increase Coverage

Contact LiveATC.net
Press Inquiries

LiveATC on iPhone
LiveATC on Android

LiveATC Mobile
(Mobile browser)

ATC Audio Archives
Interesting Recordings

LiveATC Forums

Home Page
About LiveATC.net


Terms of Use
Privacy Policy

AIRMETs/SIGMETs

FAA Airport Status
NAS Status
Arrival Demand


Server Software By:
Icecast.org
Liquidsoap

Select an area of interest:
U.S. Feeds: Class B Airports | Class C Airports | Class D/Other Airports | ARTCC (Centers)
International Feeds: Canada | Europe | Oceania | Asia | South America | North/Central America | Africa
Misc Feeds: HF Feeds
Search by ICAO/IATA airport code:   (e.g., kbos, kjfk, lax, eham, etc.)


Currently Available Live Feeds: 3182
Status Updated: Wed Jul 17 2024 19:16:04 UTC


NOTICE

Unauthorized use prohibited. See LiveATC.net Terms of Service

North and Central America Airport Feeds

 

MMAN Tower
Monterrey, Mexico

Feed Status: DOWN
Offline since: 2023-12-05 18:41:23 UTC

MMAN 171841Z 00000KT 6SM SCT012 BKN016 BKN080 29/22 A3003 RMK 8/530 HZY

Monterrey Tower: 118.600

MMGL Twr/App (Archives)
Guadalajara, Mexico

Feed Status: UP
Listen in your browser - HTML5 player(in browser, HTML5)
Click here to listen with your own player(launches your MP3 player)

MMGL 171855Z 10004KT 7SM SCT025 BKN100 25/15 A3021 RMK 8/230 HZY

MMGL Flight Activity (Flightaware)

Listeners: 2 out of 2080 total

Guadalajara Approach: 120.800
Guadalajara Tower: 118.100

MMHO App/Dep (Archives)
Hermosillo, Mexico

Feed Status: UP
Listen in your browser - HTML5 player(in browser, HTML5)
Click here to listen with your own player(launches your MP3 player)

MMHO 171840Z 20006KT 10SM SKC 39/09 A2992

MMHO Flight Activity (Flightaware)

Listeners: 1 out of 2080 total

Hermosillo Approach/Departure: 121.400

MMHO Info (Archives)
Hermosillo, Mexico

Feed Status: UP
Listen in your browser - HTML5 player(in browser, HTML5)
Click here to listen with your own player(launches your MP3 player)

MMHO 171840Z 20006KT 10SM SKC 39/09 A2992

MMHO Flight Activity (Flightaware)

Listeners: 0 out of 2080 total

Hermosillo Info: 122.300

MMHO Tower (Archives)
Hermosillo, Mexico

Feed Status: UP
Listen in your browser - HTML5 player(in browser, HTML5)
Click here to listen with your own player(launches your MP3 player)

MMHO 171840Z 20006KT 10SM SKC 39/09 A2992

MMHO Flight Activity (Flightaware)

Listeners: 16 out of 2080 total

Hermosillo Tower: 118.700

MMHO Twr/App (Archives)
Hermosillo, Mexico

Feed Status: UP
Listen in your browser - HTML5 player(in browser, HTML5)
Click here to listen with your own player(launches your MP3 player)

MMHO 171840Z 20006KT 10SM SKC 39/09 A2992

MMHO Flight Activity (Flightaware)

Listeners: 0 out of 2080 total

Hermosillo Approach/Departure: 121.400
Hermosillo Info: 122.300
Hermosillo Tower: 118.700

MMLP Twr/App (Archives)
La Paz, Mexico

Feed Status: UP
Listen in your browser - HTML5 player(in browser, HTML5)
Click here to listen with your own player(launches your MP3 player)

MMLP 171843Z 33006KT 10SM FEW200 37/11 A2991 RMK 8/001 ISOL AC

MMLP Flight Activity (Flightaware)

Listeners: 2 out of 2080 total

La Paz Approach: 120.600
La Paz Tower: 118.100

MMMD App/Dep
Merida, Mexico

Feed Status: DOWN
Offline since: 2024-07-17 19:15:06 UTC

MMMD 171842Z 15008KT 7SM SCT015 SCT300 34/22 A2999 RMK 8/108

Merida Approach: 121.200

MMMD Merida Center 125.2/128.2
Merida, Mexico

Feed Status: DOWN
Offline since: 2024-07-17 16:05:05 UTC

MMMD 171842Z 15008KT 7SM SCT015 SCT300 34/22 A2999 RMK 8/108

Merida Center: 125.200
Merida Center: 128.200

MMMD Merida Center 125.8/123.75
Merida, Mexico

Feed Status: DOWN
Offline since: 2024-07-17 19:10:06 UTC

MMMD 171842Z 15008KT 7SM SCT015 SCT300 34/22 A2999 RMK 8/108

Merida Center: 125.800
Merida Center: 123.750

MMMD Tower
Merida, Mexico

Feed Status: DOWN
Offline since: 2024-07-17 19:15:06 UTC

MMMD 171842Z 15008KT 7SM SCT015 SCT300 34/22 A2999 RMK 8/108

Merida Tower: 118.300

MMMX Aeromexico Ops (Archives)
Mexico City, Mexico

Feed Status: UP
Listen in your browser - HTML5 player(in browser, HTML5)
Click here to listen with your own player(launches your MP3 player)

MMMX 171845Z 16003KT 7SM SCT020 SCT220 25/09 A3033 NOSIG RMK 8/209 HZY TCU S SW

MMMX Flight Activity (Flightaware)

Listeners: 1 out of 2080 total

Aeromexico Ops: 131.000

MMMX Approach (Archives)
Mexico City, Mexico

Feed Status: UP
Listen in your browser - HTML5 player(in browser, HTML5)
Click here to listen with your own player(launches your MP3 player)

MMMX 171845Z 16003KT 7SM SCT020 SCT220 25/09 A3033 NOSIG RMK 8/209 HZY TCU S SW

MMMX Flight Activity (Flightaware)

Listeners: 4 out of 2080 total

Mexico City Approach: 121.200

MMMX Approach (CVJ/PBC) (Archives)
Mexico City, Mexico

Feed Status: UP
Listen in your browser - HTML5 player(in browser, HTML5)
Click here to listen with your own player(launches your MP3 player)

MMMX 171845Z 16003KT 7SM SCT020 SCT220 25/09 A3033 NOSIG RMK 8/209 HZY TCU S SW

MMMX Flight Activity (Flightaware)

Listeners: 0 out of 2080 total

Mexico City Approach (CVJ/PBC): 119.250

MMMX Approach (Final) (Archives)
Mexico City, Mexico

Feed Status: UP
Listen in your browser - HTML5 player(in browser, HTML5)
Click here to listen with your own player(launches your MP3 player)

MMMX 171845Z 16003KT 7SM SCT020 SCT220 25/09 A3033 NOSIG RMK 8/209 HZY TCU S SW

MMMX Flight Activity (Flightaware)

Listeners: 2 out of 2080 total

Mexico City Approach (Final): 119.750

MMMX Arrival (North) (Archives)
Mexico City, Mexico

Feed Status: UP
Listen in your browser - HTML5 player(in browser, HTML5)
Click here to listen with your own player(launches your MP3 player)

MMMX 171845Z 16003KT 7SM SCT020 SCT220 25/09 A3033 NOSIG RMK 8/209 HZY TCU S SW

MMMX Flight Activity (Flightaware)

Listeners: 0 out of 2080 total

Mexico City Arrival (North): 129.650

MMMX Arrival (North/South) (Archives)
Mexico City, Mexico

Feed Status: UP
Listen in your browser - HTML5 player(in browser, HTML5)
Click here to listen with your own player(launches your MP3 player)

MMMX 171845Z 16003KT 7SM SCT020 SCT220 25/09 A3033 NOSIG RMK 8/209 HZY TCU S SW

MMMX Flight Activity (Flightaware)

Listeners: 1 out of 2080 total

Mexico City Arrival (North): 129.650
Mexico City Arrival (South): 119.100

MMMX Arrival (South) (Archives)
Mexico City, Mexico

Feed Status: UP
Listen in your browser - HTML5 player(in browser, HTML5)
Click here to listen with your own player(launches your MP3 player)

MMMX 171845Z 16003KT 7SM SCT020 SCT220 25/09 A3033 NOSIG RMK 8/209 HZY TCU S SW

MMMX Flight Activity (Flightaware)

Listeners: 0 out of 2080 total

Mexico City Arrival (South): 119.100

MMMX ATIS (Archives)
Mexico City, Mexico

Feed Status: UP
Listen in your browser - HTML5 player(in browser, HTML5)
Click here to listen with your own player(launches your MP3 player)

MMMX 171845Z 16003KT 7SM SCT020 SCT220 25/09 A3033 NOSIG RMK 8/209 HZY TCU S SW

MMMX Flight Activity (Flightaware)

Listeners: 0 out of 2080 total

Mexico City ATIS: 127.650

MMMX Center (Southeast) (Archives)
Mexico City, Mexico

Feed Status: UP
Listen in your browser - HTML5 player(in browser, HTML5)
Click here to listen with your own player(launches your MP3 player)

MMMX 171845Z 16003KT 7SM SCT020 SCT220 25/09 A3033 NOSIG RMK 8/209 HZY TCU S SW

MMMX Flight Activity (Flightaware)

Listeners: 0 out of 2080 total

Mexico Center (Southeast): 128.250

MMMX Center (West)
Mexico City, Mexico

Feed Status: DOWN
Offline since: 2024-07-16 16:01:39 UTC

MMMX 171845Z 16003KT 7SM SCT020 SCT220 25/09 A3033 NOSIG RMK 8/209 HZY TCU S SW

Mexico Center (West): 125.100

MMMX Clearance Delivery (Archives)
Mexico City, Mexico

Feed Status: UP
Listen in your browser - HTML5 player(in browser, HTML5)
Click here to listen with your own player(launches your MP3 player)

MMMX 171845Z 16003KT 7SM SCT020 SCT220 25/09 A3033 NOSIG RMK 8/209 HZY TCU S SW

MMMX Flight Activity (Flightaware)

Listeners: 0 out of 2080 total

Mexico City Clearance Delivery: 122.100

MMMX Departure (North) (Archives)
Mexico City, Mexico

Feed Status: UP
Listen in your browser - HTML5 player(in browser, HTML5)
Click here to listen with your own player(launches your MP3 player)

MMMX 171845Z 16003KT 7SM SCT020 SCT220 25/09 A3033 NOSIG RMK 8/209 HZY TCU S SW

MMMX Flight Activity (Flightaware)

Listeners: 1 out of 2080 total

Mexico City Departure (North): 120.500

MMMX Departure (South) (Archives)
Mexico City, Mexico

Feed Status: UP
Listen in your browser - HTML5 player(in browser, HTML5)
Click here to listen with your own player(launches your MP3 player)

MMMX 171845Z 16003KT 7SM SCT020 SCT220 25/09 A3033 NOSIG RMK 8/209 HZY TCU S SW

MMMX Flight Activity (Flightaware)

Listeners: 0 out of 2080 total

Mexico City Departure (South): 129.100

MMMX Ground (North) (Archives)
Mexico City, Mexico

Feed Status: UP
Listen in your browser - HTML5 player(in browser, HTML5)
Click here to listen with your own player(launches your MP3 player)

MMMX 171845Z 16003KT 7SM SCT020 SCT220 25/09 A3033 NOSIG RMK 8/209 HZY TCU S SW

MMMX Flight Activity (Flightaware)

Listeners: 0 out of 2080 total

Mexico City Ground (North): 121.850

MMMX Ground (North/South) (Archives)
Mexico City, Mexico

Feed Status: UP
Listen in your browser - HTML5 player(in browser, HTML5)
Click here to listen with your own player(launches your MP3 player)

MMMX 171845Z 16003KT 7SM SCT020 SCT220 25/09 A3033 NOSIG RMK 8/209 HZY TCU S SW

MMMX Flight Activity (Flightaware)

Listeners: 1 out of 2080 total

Mexico City Ground (North): 121.850
Mexico City Ground (South): 121.000

MMMX Ground (South) (Archives)
Mexico City, Mexico

Feed Status: UP
Listen in your browser - HTML5 player(in browser, HTML5)
Click here to listen with your own player(launches your MP3 player)

MMMX 171845Z 16003KT 7SM SCT020 SCT220 25/09 A3033 NOSIG RMK 8/209 HZY TCU S SW

MMMX Flight Activity (Flightaware)

Listeners: 0 out of 2080 total

Mexico City Ground (South): 121.000

MMMX Ground 122.8 (Archives)
Mexico City, Mexico

Feed Status: UP
Listen in your browser - HTML5 player(in browser, HTML5)
Click here to listen with your own player(launches your MP3 player)

MMMX 171845Z 16003KT 7SM SCT020 SCT220 25/09 A3033 NOSIG RMK 8/209 HZY TCU S SW

MMMX Flight Activity (Flightaware)

Listeners: 0 out of 2080 total

Mexico City Ground: 122.800

MMMX Mexico Center North (Archives)
Mexico City, Mexico

Feed Status: UP
Listen in your browser - HTML5 player(in browser, HTML5)
Click here to listen with your own player(launches your MP3 player)

MMMX 171845Z 16003KT 7SM SCT020 SCT220 25/09 A3033 NOSIG RMK 8/209 HZY TCU S SW

MMMX Flight Activity (Flightaware)

Listeners: 0 out of 2080 total

Mexico Center North: 133.100

MMMX Military Parade (Escuadron 3) (Archives)
Mexico City, Mexico

Feed Status: UP
Listen in your browser - HTML5 player(in browser, HTML5)
Click here to listen with your own player(launches your MP3 player)

MMMX 171845Z 16003KT 7SM SCT020 SCT220 25/09 A3033 NOSIG RMK 8/209 HZY TCU S SW

MMMX Flight Activity (Flightaware)

Listeners: 0 out of 2080 total

Military Air Parade (Escuadron 3): 129.250

MMMX Military Parade (Palacio)
Mexico City, Mexico

Feed Status: DOWN
Offline since: 2024-07-16 16:01:39 UTC

MMMX 171845Z 16003KT 7SM SCT020 SCT220 25/09 A3033 NOSIG RMK 8/209 HZY TCU S SW

Military Air Parade (Palacio): 126.200

MMMX Tower (Archives)
Mexico City, Mexico

Feed Status: UP
Listen in your browser - HTML5 player(in browser, HTML5)
Click here to listen with your own player(launches your MP3 player)

MMMX 171845Z 16003KT 7SM SCT020 SCT220 25/09 A3033 NOSIG RMK 8/209 HZY TCU S SW

MMMX Flight Activity (Flightaware)

Listeners: 6 out of 2080 total

Mexico City Tower: 124.700
Mexico City Tower: 118.550
Mexico City Tower: 118.700

MMMX Tower (Helicopters) (Archives)
Mexico City, Mexico

Feed Status: UP
Listen in your browser - HTML5 player(in browser, HTML5)
Click here to listen with your own player(launches your MP3 player)

MMMX 171845Z 16003KT 7SM SCT020 SCT220 25/09 A3033 NOSIG RMK 8/209 HZY TCU S SW

MMMX Flight Activity (Flightaware)

Listeners: 2 out of 2080 total

Mexico City Tower (Helicopters): 118.150

MMMX UNICOM (Archives)
Mexico City, Mexico

Feed Status: UP
Listen in your browser - HTML5 player(in browser, HTML5)
Click here to listen with your own player(launches your MP3 player)

MMMX 171845Z 16003KT 7SM SCT020 SCT220 25/09 A3033 NOSIG RMK 8/209 HZY TCU S SW

MMMX Flight Activity (Flightaware)

Listeners: 1 out of 2080 total

Mexico City UNICOM: 122.500

MMMX Volaris Ops (Archives)
Mexico City, Mexico

Feed Status: UP
Listen in your browser - HTML5 player(in browser, HTML5)
Click here to listen with your own player(launches your MP3 player)

MMMX 171845Z 16003KT 7SM SCT020 SCT220 25/09 A3033 NOSIG RMK 8/209 HZY TCU S SW

MMMX Flight Activity (Flightaware)

Listeners: 0 out of 2080 total

Volaris Ops: 130.375

MMMY Tower/Approach (Archives)
Monterrey, Mexico

Feed Status: UP
Listen in your browser - HTML5 player(in browser, HTML5)
Click here to listen with your own player(launches your MP3 player)

MMMY 171840Z 12006KT 5SM SCT013 OVC025 29/22 A3003 RMK 8/5// HZY

MMMY Flight Activity (Flightaware)

Listeners: 2 out of 2080 total

Monterrey Approach/Departure: 119.750
Monterrey Tower: 118.100

MMPC CTAF (Archives)
Pachuca, Mexico

Feed Status: UP
Listen in your browser - HTML5 player(in browser, HTML5)
Click here to listen with your own player(launches your MP3 player)

MMPC Flight Activity (Flightaware)

Listeners: 0 out of 2080 total

Pachuca CTAF/AFIS: 122.900

MMQT Tower/App (Archives)
Queretaro, Mexico

Feed Status: UP
Listen in your browser - HTML5 player(in browser, HTML5)
Click here to listen with your own player(launches your MP3 player)

MMQT 171840Z 34005KT 7SM SCT020TCU BKN100 OVC220 22/14 A3034 RMK 8/232 BINOVC DSNT CB/N

MMQT Flight Activity (Flightaware)

Listeners: 1 out of 2080 total

Queretaro Approach: 127.200
Queretaro Tower: 118.950

MMMX Departure (North) (Archives)
Santa Lucia, Mexico

Feed Status: UP
Listen in your browser - HTML5 player(in browser, HTML5)
Click here to listen with your own player(launches your MP3 player)

MMMX 171845Z 16003KT 7SM SCT020 SCT220 25/09 A3033 NOSIG RMK 8/209 HZY TCU S SW

MMMX Flight Activity (Flightaware)

Listeners: 1 out of 2080 total

Mexico City Departure (North): 120.500

MMSM Approach (119.0) (Archives)
Santa Lucia, Mexico

Feed Status: UP
Listen in your browser - HTML5 player(in browser, HTML5)
Click here to listen with your own player(launches your MP3 player)

MMMX 171845Z 16003KT 7SM SCT020 SCT220 25/09 A3033 NOSIG RMK 8/209 HZY TCU S SW

MMMX Flight Activity (Flightaware)

Listeners: 0 out of 2080 total

Santa Lucia Approach: 119.000

MMSM Approach (128.85) (Archives)
Santa Lucia, Mexico

Feed Status: UP
Listen in your browser - HTML5 player(in browser, HTML5)
Click here to listen with your own player(launches your MP3 player)

MMMX 171845Z 16003KT 7SM SCT020 SCT220 25/09 A3033 NOSIG RMK 8/209 HZY TCU S SW

MMMX Flight Activity (Flightaware)

Listeners: 0 out of 2080 total

Santa Lucia Approach: 128.850

MMSM ATIS (Archives)
Santa Lucia, Mexico

Feed Status: UP
Listen in your browser - HTML5 player(in browser, HTML5)
Click here to listen with your own player(launches your MP3 player)

MMMX 171845Z 16003KT 7SM SCT020 SCT220 25/09 A3033 NOSIG RMK 8/209 HZY TCU S SW

MMMX Flight Activity (Flightaware)

Listeners: 0 out of 2080 total

Santa Lucia ATIS:

MMSM Clearance Delivery (Archives)
Santa Lucia, Mexico

Feed Status: UP
Listen in your browser - HTML5 player(in browser, HTML5)
Click here to listen with your own player(launches your MP3 player)

MMMX 171845Z 16003KT 7SM SCT020 SCT220 25/09 A3033 NOSIG RMK 8/209 HZY TCU S SW

MMMX Flight Activity (Flightaware)

Listeners: 0 out of 2080 total

Santa Lucia Clearance Delivery: 121.900

MMSM Ground (Archives)
Santa Lucia, Mexico

Feed Status: UP
Listen in your browser - HTML5 player(in browser, HTML5)
Click here to listen with your own player(launches your MP3 player)

MMMX 171845Z 16003KT 7SM SCT020 SCT220 25/09 A3033 NOSIG RMK 8/209 HZY TCU S SW

MMMX Flight Activity (Flightaware)

Listeners: 0 out of 2080 total

Santa Lucia Ground: 121.800

MMSM Tower 118.25 (Archives)
Santa Lucia, Mexico

Feed Status: UP
Listen in your browser - HTML5 player(in browser, HTML5)
Click here to listen with your own player(launches your MP3 player)

MMMX 171845Z 16003KT 7SM SCT020 SCT220 25/09 A3033 NOSIG RMK 8/209 HZY TCU S SW

MMMX Flight Activity (Flightaware)

Listeners: 0 out of 2080 total

Santa Lucia Tower: 118.250

MMSM Tower 118.3 (Archives)
Santa Lucia, Mexico

Feed Status: UP
Listen in your browser - HTML5 player(in browser, HTML5)
Click here to listen with your own player(launches your MP3 player)

MMMX 171845Z 16003KT 7SM SCT020 SCT220 25/09 A3033 NOSIG RMK 8/209 HZY TCU S SW

MMMX Flight Activity (Flightaware)

Listeners: 0 out of 2080 total

Santa Lucia Tower: 118.300

MMTC Twr/App/Center #1
Torreon, Mexico

Feed Status: DOWN
Offline since: 2024-07-15 06:13:05 UTC

MMTC 171845Z 10008KT 7SM BKN015 BKN080 25/19 A3015 RMK 8/170

Mazatlan Center: 124.200
Mazatlan Center: 124.400
Mazatlan Center: 128.000
Mexico Center: 123.900
Monterrey Center: 125.600
Monterrey Center: 125.425
Monterrey Center: 127.400
Torreon Approach: 119.500
Torreon Tower: 118.500

MMTC Twr/App/Center #2 (Archives)
Torreon, Mexico

Feed Status: UP
Listen in your browser - HTML5 player(in browser, HTML5)
Click here to listen with your own player(launches your MP3 player)

MMTC 171845Z 10008KT 7SM BKN015 BKN080 25/19 A3015 RMK 8/170

MMTC Flight Activity (Flightaware)

Listeners: 0 out of 2080 total

Chihuahua Approach: 121.000
Mazatlan Center: 128.000
Mazatlan Center: 124.200
Mexico Center: 123.900
Monterrey Approach: 119.750
Monterrey Center: 127.400
Monterrey Center: 126.400
Monterrey Center: 125.600
Monterrey Center: 125.425
Torreon Approach: 119.600
Torreon Tower: 118.500

MMTJ Approach (Archives)
Tijuana, Mexico

Feed Status: UP
Listen in your browser - HTML5 player(in browser, HTML5)
Click here to listen with your own player(launches your MP3 player)

MMTJ 171842Z 23010KT 6SM FEW015 23/17 A3001 RMK 8/800 HZY TCU-E ST-SW AC-W

MMTJ Flight Activity (Flightaware)

Listeners: 0 out of 2080 total

Tijuana Approach: 120.300

MMTJ Twr/Ramp (Archives)
Tijuana, Mexico

Feed Status: UP
Listen in your browser - HTML5 player(in browser, HTML5)
Click here to listen with your own player(launches your MP3 player)

MMTJ 171842Z 23010KT 6SM FEW015 23/17 A3001 RMK 8/800 HZY TCU-E ST-SW AC-W

MMTJ Flight Activity (Flightaware)

Listeners: 4 out of 2080 total

Tijuana Ramp: 126.100
Tijuana Tower: 118.100

MUFH Havana FIR (App/Center)
Havana, Cuba

Feed Status: DOWN
Offline since: 2024-07-17 13:14:05 UTC

Hava Approach: 120.300
Havana Center: 120.250
Havana Center: 123.700
Havana Center: 124.550
Havana Center: 133.700
Havana Center: 135.100

TBPB Gnd/Twr/Radar/Center (Archives)
Bridgetown, Barbados

Feed Status: UP
Listen in your browser - HTML5 player(in browser, HTML5)
Click here to listen with your own player(launches your MP3 player)

TBPB 171800Z 34009KT 9999 FEW018 31/26 Q1014 NOSIG

TBPB Flight Activity (Flightaware)

Listeners: 1 out of 2080 total

Adams Approach/Departure: 129.350
Adams Approach/Departure: 128.850
Adams Ground: 121.900
Adams Tower: 118.700
Piarco Center: 123.700

TNCM Tower (Archives)
Philipsburg, Saint Martin

Feed Status: UP
Listen in your browser - HTML5 player(in browser, HTML5)
Click here to listen with your own player(launches your MP3 player)

TNCM 171900Z 09008KT 9999 SCT018 32/28 Q1018 NOSIG

TNCM Flight Activity (Flightaware)

Listeners: 1 out of 2080 total

Juliana Tower (TNCM): 118.700

TXKF ATIS (Archives)
Hamilton, Bermuda

Feed Status: UP
Listen in your browser - HTML5 player(in browser, HTML5)
Click here to listen with your own player(launches your MP3 player)

TXKF 171855Z 16009KT 9999 SCT017 29/25 Q1023

TXKF Flight Activity (Flightaware)

Listeners: 0 out of 2080 total

Bermuda ATIS: 119.600

TXKF Del/Gnd/Twr/CTAF (Archives)
Hamilton, Bermuda

Feed Status: UP
Listen in your browser - HTML5 player(in browser, HTML5)
Click here to listen with your own player(launches your MP3 player)

TXKF 171855Z 16009KT 9999 SCT017 29/25 Q1023

TXKF Flight Activity (Flightaware)

Listeners: 2 out of 2080 total

Bermuda CTAF: 122.800
Bermuda Ground/Clearance: 124.500
Bermuda Tower: 118.100

TXKF Tower (Archives)
Hamilton, Bermuda

Feed Status: UP
Listen in your browser - HTML5 player(in browser, HTML5)
Click here to listen with your own player(launches your MP3 player)

TXKF 171855Z 16009KT 9999 SCT017 29/25 Q1023

TXKF Flight Activity (Flightaware)

Listeners: 0 out of 2080 total

Bermuda Tower: 118.100

ZNY Sector 81 (Bermuda)/App (Archives)
Hamilton, Bermuda

Feed Status: UP
Listen in your browser - HTML5 player(in browser, HTML5)
Click here to listen with your own player(launches your MP3 player)

TXKF 171855Z 16009KT 9999 SCT017 29/25 Q1023

TXKF Flight Activity (Flightaware)

Listeners: 0 out of 2080 total

New York Approach: 119.100
New York Center (BDA81 Bermuda Sector): 128.500

TNCS Info/TFFJ Twr (Archives)
Gustavia, Saint Barthelemy

Feed Status: UP
Listen in your browser - HTML5 player(in browser, HTML5)
Click here to listen with your own player(launches your MP3 player)

TNCS Flight Activity (Flightaware)

Listeners: 0 out of 2080 total

Saba Tower: 118.250
St. Barths Tower: 118.450

TNCE Info (Archives)
Oranjestad, Sint Eustatius

Feed Status: UP
Listen in your browser - HTML5 player(in browser, HTML5)
Click here to listen with your own player(launches your MP3 player)

TNCE 171755Z AUTO 09012KT 050V120 //// // ///////// 31/26 Q1017 RE//

TNCE Flight Activity (Flightaware)

Listeners: 0 out of 2080 total

Statia Info: 118.100

TNCS Info/TFFJ Twr (Archives)
Hell's Gate, Saba

Feed Status: UP
Listen in your browser - HTML5 player(in browser, HTML5)
Click here to listen with your own player(launches your MP3 player)

TNCS Flight Activity (Flightaware)

Listeners: 0 out of 2080 total

Saba Tower: 118.250
St. Barths Tower: 118.450

MHLC Gnd/Twr/Center
La Ceiba, Honduras

Feed Status: DOWN
Offline since: 2024-07-17 07:26:39 UTC

MHLC 171900Z 03010KT 9999 FEW030 32/25 Q1013 A2992 NOSIG

CENAMER: 123.900
CENAMER: 124.300
Goloson Ground: 121.900
Goloson Tower: 118.500
La Ceiba Radio: 128.900

MHLM Gnd/Twr/App
San Pedro Sula, Honduras

Feed Status: DOWN
Offline since: 2024-05-02 21:45:23 UTC

MHLM 171900Z 05007KT 020V080 9999 SCT028TCU 33/23 Q1013 A2992 NOSIG

La Mesa Ground: 121.900
La Mesa Tower: 118.200
San Pedro Sula Approach: 119.700

MHTG ATIS
Tegucigalpa, Honduras

Feed Status: DOWN
Offline since: 2024-07-10 17:41:23 UTC

MHTG 171900Z 34013KT 9999 SCT036 28/18 Q1019 A3009 NOSIG

Toncontin ATIS: 127.750

MHTG Gnd/Twr/App/Ctr/Ops (Archives)
Tegucigalpa, Honduras

Feed Status: UP
Listen in your browser - HTML5 player(in browser, HTML5)
Click here to listen with your own player(launches your MP3 player)

MHTG 171900Z 34013KT 9999 SCT036 28/18 Q1019 A3009 NOSIG

MHTG Flight Activity (Flightaware)

Listeners: 1 out of 2080 total

American Airlines Ops: 130.700
ARINC ACARS: 131.550
Cenamer Center: 123.900
Cenamer Center: 124.300
Cenamer Center: 124.100
CMP Ops: 129.925
Continental Airlines Ops: 129.925
FAH Ground: 122.900
Palmerola (MHPR) Tower: 118.900
Taca Ops: 131.300
Taca Ops Sal: 130.300
Tecnologias Unidas: 133.000
Tegucigalpa RDO: 126.700
Toncontin Approach: 119.100
Toncontin Ground: 121.900
Toncontin Tower: 118.700

MPMG Ground
Panama City, Panama

Feed Status: DOWN
Offline since: 2024-01-03 22:57:06 UTC

MPMG 171800Z 28004KT 230V330 9999 TS SCT008 SCT013CB BKN080 26/25 Q1011 RERA NOSIG

Gelabert Ground: 121.700

MPMG Tower
Panama City, Panama

Feed Status: DOWN
Offline since: 2024-02-07 01:20:05 UTC

MPMG 171800Z 28004KT 230V330 9999 TS SCT008 SCT013CB BKN080 26/25 Q1011 RERA NOSIG

Gelabert Tower: 118.300

Panama App/Dep #2 (Archives)
Panama City, Panama

Feed Status: UP
Listen in your browser - HTML5 player(in browser, HTML5)
Click here to listen with your own player(launches your MP3 player)

MPPA 171800Z 31002KT 6000 TSRA FEW008 SCT015CB BKN080 ///// Q1010

MPPA Flight Activity (Flightaware)

Listeners: 2 out of 2080 total

Panama Approach: 119.700
Panama Departure: 119.200

Panama Approach #1
Panama City, Panama

Feed Status: DOWN
Offline since: 2024-01-03 22:57:06 UTC

MPMG 171800Z 28004KT 230V330 9999 TS SCT008 SCT013CB BKN080 26/25 Q1011 RERA NOSIG

Panama Approach: 119.700

Panama Center #1
Panama City, Panama

Feed Status: DOWN
Offline since: 2024-02-07 01:15:06 UTC

MPMG 171800Z 28004KT 230V330 9999 TS SCT008 SCT013CB BKN080 26/25 Q1011 RERA NOSIG

Panama Center: 134.900
Panama Center (North): 133.300
Panama Center (North): 125.500
Panama Center (South): 123.300
Panama Center (South): 133.000

Panama Center #2 (Archives)
Panama City, Panama

Feed Status: UP
Listen in your browser - HTML5 player(in browser, HTML5)
Click here to listen with your own player(launches your MP3 player)

MPPA 171800Z 31002KT 6000 TSRA FEW008 SCT015CB BKN080 ///// Q1010

MPPA Flight Activity (Flightaware)

Listeners: 1 out of 2080 total

Panama Center: 134.900
Panama Center (North): 125.500
Panama Center (North): 133.300
Panama Center (South): 123.300
Panama Center (South): 133.000

Panama Traffic Advisory #1
Panama City, Panama

Feed Status: DOWN
Offline since: 2024-02-07 00:15:06 UTC

MPMG 171800Z 28004KT 230V330 9999 TS SCT008 SCT013CB BKN080 26/25 Q1011 RERA NOSIG

Panama Traffic Advisory: 121.200

MPPA Ground (Archives)
Panama City, Panama

Feed Status: UP
Listen in your browser - HTML5 player(in browser, HTML5)
Click here to listen with your own player(launches your MP3 player)

MPPA 171800Z 31002KT 6000 TSRA FEW008 SCT015CB BKN080 ///// Q1010

MPPA Flight Activity (Flightaware)

Listeners: 0 out of 2080 total

Pacifico Ground: 121.100

MPPA Ground/Tower (Archives)
Panama City, Panama

Feed Status: UP
Listen in your browser - HTML5 player(in browser, HTML5)
Click here to listen with your own player(launches your MP3 player)

MPPA 171800Z 31002KT 6000 TSRA FEW008 SCT015CB BKN080 ///// Q1010

MPPA Flight Activity (Flightaware)

Listeners: 0 out of 2080 total

Pacifico Ground: 121.100
Pacifico Tower: 118.900

MPPA Radio (Archives)
Panama City, Panama

Feed Status: UP
Listen in your browser - HTML5 player(in browser, HTML5)
Click here to listen with your own player(launches your MP3 player)

MPPA 171800Z 31002KT 6000 TSRA FEW008 SCT015CB BKN080 ///// Q1010

MPPA Flight Activity (Flightaware)

Listeners: 0 out of 2080 total

Panama Radio: 123.600
Panama Radio: 126.900

MPPA Tower (Archives)
Panama City, Panama

Feed Status: UP
Listen in your browser - HTML5 player(in browser, HTML5)
Click here to listen with your own player(launches your MP3 player)

MPPA 171800Z 31002KT 6000 TSRA FEW008 SCT015CB BKN080 ///// Q1010

MPPA Flight Activity (Flightaware)

Listeners: 0 out of 2080 total

Pacifico Tower: 118.900

Panama App/Dep #2 (Archives)
Panama City, Panama

Feed Status: UP
Listen in your browser - HTML5 player(in browser, HTML5)
Click here to listen with your own player(launches your MP3 player)

MPPA 171800Z 31002KT 6000 TSRA FEW008 SCT015CB BKN080 ///// Q1010

MPPA Flight Activity (Flightaware)

Listeners: 2 out of 2080 total

Panama Approach: 119.700
Panama Departure: 119.200

Panama Approach #1
Panama City, Panama

Feed Status: DOWN
Offline since: 2024-01-03 22:57:06 UTC

MPMG 171800Z 28004KT 230V330 9999 TS SCT008 SCT013CB BKN080 26/25 Q1011 RERA NOSIG

Panama Approach: 119.700

Panama Center #1
Panama City, Panama

Feed Status: DOWN
Offline since: 2024-02-07 01:15:06 UTC

MPMG 171800Z 28004KT 230V330 9999 TS SCT008 SCT013CB BKN080 26/25 Q1011 RERA NOSIG

Panama Center: 134.900
Panama Center (North): 133.300
Panama Center (North): 125.500
Panama Center (South): 123.300
Panama Center (South): 133.000

Panama Center #2 (Archives)
Panama City, Panama

Feed Status: UP
Listen in your browser - HTML5 player(in browser, HTML5)
Click here to listen with your own player(launches your MP3 player)

MPPA 171800Z 31002KT 6000 TSRA FEW008 SCT015CB BKN080 ///// Q1010

MPPA Flight Activity (Flightaware)

Listeners: 1 out of 2080 total

Panama Center: 134.900
Panama Center (North): 125.500
Panama Center (North): 133.300
Panama Center (South): 123.300
Panama Center (South): 133.000

Panama Traffic Advisory #1
Panama City, Panama

Feed Status: DOWN
Offline since: 2024-02-07 00:15:06 UTC

MPMG 171800Z 28004KT 230V330 9999 TS SCT008 SCT013CB BKN080 26/25 Q1011 RERA NOSIG

Panama Traffic Advisory: 121.200

Panama App/Dep #2 (Archives)
Panama City, Panama

Feed Status: UP
Listen in your browser - HTML5 player(in browser, HTML5)
Click here to listen with your own player(launches your MP3 player)

MPPA 171800Z 31002KT 6000 TSRA FEW008 SCT015CB BKN080 ///// Q1010

MPPA Flight Activity (Flightaware)

Listeners: 2 out of 2080 total

Panama Approach: 119.700
Panama Departure: 119.200

Panama Approach #1
Panama City, Panama

Feed Status: DOWN
Offline since: 2024-01-03 22:57:06 UTC

MPMG 171800Z 28004KT 230V330 9999 TS SCT008 SCT013CB BKN080 26/25 Q1011 RERA NOSIG

Panama Approach: 119.700

Panama Center #1
Panama City, Panama

Feed Status: DOWN
Offline since: 2024-02-07 01:15:06 UTC

MPMG 171800Z 28004KT 230V330 9999 TS SCT008 SCT013CB BKN080 26/25 Q1011 RERA NOSIG

Panama Center: 134.900
Panama Center (North): 133.300
Panama Center (North): 125.500
Panama Center (South): 123.300
Panama Center (South): 133.000

Panama Center #2 (Archives)
Panama City, Panama

Feed Status: UP
Listen in your browser - HTML5 player(in browser, HTML5)
Click here to listen with your own player(launches your MP3 player)

MPPA 171800Z 31002KT 6000 TSRA FEW008 SCT015CB BKN080 ///// Q1010

MPPA Flight Activity (Flightaware)

Listeners: 1 out of 2080 total

Panama Center: 134.900
Panama Center (North): 125.500
Panama Center (North): 133.300
Panama Center (South): 123.300
Panama Center (South): 133.000

Panama Traffic Advisory #1
Panama City, Panama

Feed Status: DOWN
Offline since: 2024-02-07 00:15:06 UTC

MPMG 171800Z 28004KT 230V330 9999 TS SCT008 SCT013CB BKN080 26/25 Q1011 RERA NOSIG

Panama Traffic Advisory: 121.200

CENAMER/Panama ACC (Archives)
San Jose, Costa Rica

Feed Status: UP
Listen in your browser - HTML5 player(in browser, HTML5)
Click here to listen with your own player(launches your MP3 player)

MROC 171900Z 12010KT 090V160 9999 FEW040 BKN200 29/18 A3001 NOSIG

MROC Flight Activity (Flightaware)

Listeners: 0 out of 2080 total

Central American Center (CENAMER Control): 124.100
Central American Center (CENAMER Control): 123.900
Central American Center (CENAMER Control): 135.500
Panama Center: 133.000

MROC Approach/Control (Archives)
San Jose, Costa Rica

Feed Status: UP
Listen in your browser - HTML5 player(in browser, HTML5)
Click here to listen with your own player(launches your MP3 player)

MROC 171900Z 12010KT 090V160 9999 FEW040 BKN200 29/18 A3001 NOSIG

MROC Flight Activity (Flightaware)

Listeners: 0 out of 2080 total

Coco Approach: 120.500
Coco Approach (Backup): 128.900
Coco Control: 119.600

MROC Del/Gnd/Twr/App/Center/Misc (Archives)
San Jose, Costa Rica

Feed Status: UP
Listen in your browser - HTML5 player(in browser, HTML5)
Click here to listen with your own player(launches your MP3 player)

MROC 171900Z 12010KT 090V160 9999 FEW040 BKN200 29/18 A3001 NOSIG

MROC Flight Activity (Flightaware)

Listeners: 11 out of 2080 total

Coco Center (Control over CR Airspace): 119.600
Coco Clearance Delivery: 121.300
Coco Ground: 121.900
Coco Terminal Control: 120.500
Coco Tower: 118.600
Coco UNICOM: 126.800

MROC Gnd/Twr/App/Center (Archives)
San Jose, Costa Rica

Feed Status: UP
Listen in your browser - HTML5 player(in browser, HTML5)
Click here to listen with your own player(launches your MP3 player)

MROC 171900Z 12010KT 090V160 9999 FEW040 BKN200 29/18 A3001 NOSIG

MROC Flight Activity (Flightaware)

Listeners: 0 out of 2080 total

Central American Center (CENAMER Control): 124.100
Coco Center (Control over CR Airspace): 119.600
Coco Ground: 121.900
Coco Terminal Control: 120.500
Coco Tower: 118.600

MRPV Ground/Tower (Archives)
San Jose, Costa Rica

Feed Status: UP
Listen in your browser - HTML5 player(in browser, HTML5)
Click here to listen with your own player(launches your MP3 player)

MRPV 171900Z 09012KT 9999 FEW030 BKN220 28/18 A3002 NOSIG

MRPV Flight Activity (Flightaware)

Listeners: 0 out of 2080 total

Pavas Ground: 121.700
Pavas Tower: 118.300

MRQP UNICOM/Radio/Center (Archives)
Quepos, Costa Rica

Feed Status: UP
Listen in your browser - HTML5 player(in browser, HTML5)
Click here to listen with your own player(launches your MP3 player)

MRQP Flight Activity (Flightaware)

Listeners: 0 out of 2080 total

Coco Center: 119.600
Coco Radio: 126.800
CTAF/UNICOM: 122.000
CTAF/UNICOM: 123.000

MSSS Gnd/Twr/App (Archives)
San Salvador, El Salvador

Feed Status: UP
Listen in your browser - HTML5 player(in browser, HTML5)
Click here to listen with your own player(launches your MP3 player)

MSSS 171900Z VRB05KT 9999 FEW020 31/20 Q1015 A2998

MSSS Flight Activity (Flightaware)

Listeners: 7 out of 2080 total

CENAMER (airborne only0: 124.100
CENAMER (airborne only0: 133.500
El Salvador Control: 129.200
El Salvador Tower: 118.000
Ilopango Approach: 129.225
Ilopango Ground: 121.900
Ilopango Radio: 127.050
Ilopango Tower: 118.300